Tracking 20093 objects as of 16-Dec-2019
HD Live streaming from Space Station
objects crossing your sky now

SL-14 R/B

Track SL-14 R/B now!
10-day predictions
SL-14 R/B is classified as:


NORAD ID: 14820
Int'l Code: 1984-027B
Perigee: 612.8 km
Apogee: 637.1 km
Inclination: 82.5 °
Period: 97.1 minutes
Semi major axis: 6995 km
RCS: 3.863 m2 (large)
Launch date: March 15, 1984
Source: Commonwealth of Independent States (former USSR) (CIS)
Launch site: PLESETSK MISSILE AND SPACE COMPLEX (PKMTR)

Note: This is a ROCKET BODY
aabbcc
Your satellite tracking list
Your tracking list is empty




NASA's NSSDC Master Catalog

Two Line Element Set (TLE):
1 14820U 84027B   19349.51305602  .00000072  00000-0  58097-5 0  9997
2 14820  82.5432 214.0021 0017368 295.8976  64.0448 14.83647327931084
Source of the keplerian elements: AFSPC